Regional Weather Roundup
Issued by NWS

Home | Current Version | Previous Version | Graphics & Text | Print | Product List | Glossary Off
Versions: 1 2 3 4 5 6 7 8 9 10 11 12 13 14 15 16 17 18 19 20 21 22 23 24 25 26 27 28 29 30 31 32 33 34 35 36 37 38 39 40 41 42 43 44 45 46 47 48 49 50

000
ASUS43 KMKX 261200
RWRWI

WISCONSIN REGIONAL WEATHER ROUNDUP
NATIONAL WEATHER SERVICE MILWAUKEE/SULLIVAN WI
600 AM CST SUN FEB 26 2017

NOTE: "FAIR" INDICATES FEW OR NO CLOUDS BELOW 12,000 FEET WITH NO
SIGNIFICANT WEATHER AND/OR OBSTRUCTIONS TO VISIBILITY.

WIZ001-002-006>008-014>016-023>028-261300-
NORTHWEST WISCONSIN

CITY           SKY/WX    TMP DP  RH WIND       PRES   REMARKS
SUPERIOR ARPT  CLOUDY    26  23  88 SW6       29.67S WCI  19
ASHLAND        CLOUDY    23  19  85 SW12      29.68S WCI  12
6HR MIN TEMP:  23; 6HR MAX TEMP:  28; 6HR PCP: TRACE;

HAYWARD        CLOUDY    23  17  78 S9        29.68F WCI  13
6HR MIN TEMP:  23; 6HR MAX TEMP:  26; 6HR PCP: TRACE;

SIREN          CLOUDY    25  19  77 SW6       29.69F WCI  18
CUMBERLAND     CLOUDY    25  18  74 SW12      29.70F WCI  14
RICE LAKE      FLURRIES  23  18  81 S6        29.73F WCI  16
CHETEK         CLOUDY    23  17  78 S7        29.73F WCI  14
LADYSMITH      CLOUDY    22  16  78 S10       29.73F WCI  11
EAU CLAIRE     NOT AVBL
MENOMONIE      MOCLDY    24  17  73 SW5       29.75S WCI  18
NEW RICHMOND   CLOUDY    25  17  73 SW8       29.73S WCI  16
OSCEOLA        CLOUDY    26  19  72 SW8       29.75S WCI  18
$$

WIZ003>005-009-010-017-018-261300-
NORTH CENTRAL WISCONSIN

CITY           SKY/WX    TMP DP  RH WIND       PRES   REMARKS
MANITOWISH WTR LGT SNOW  19  18  95 S10G16    29.66F WCI   7
ARBOR VITAE    LGT SNOW  19  16  86 S8          N/A  WCI   9
WOODRUFF       LGT SNOW  19  16  86 S8          N/A  WCI   9
RHINELANDER    CLOUDY    20  15  81 SW12G21   29.70F WCI   8
6HR MIN TEMP:  16; 6HR MAX TEMP:  20;

EAGLE RIVER    CLOUDY    18  13  80 SW6       29.69S WCI   9
LAND O LAKES   CLOUDY    18  15  87 S6        29.69F WCI  10
PHILLIPS       FLURRIES  20  16  83 SW8       29.69F WCI  10
TOMAHAWK       CLOUDY    19  15  84 CALM      29.72F
MEDFORD        CLOUDY    21  15  76 S12       29.72F WCI   9
MERRILL        NOT AVBL
$$

WIZ029-030-035-036-043>047-261300-
CENTRAL WISCONSIN

CITY           SKY/WX    TMP DP  RH WIND       PRES   REMARKS
WAUSAU         CLOUDY    22  15  75 S9        29.75F WCI  12
6HR MIN TEMP:  17; 6HR MAX TEMP:  22; 6HR PCP: TRACE;

MOSINEE        CLOUDY    21  18  86 S10G17    29.77F WCI  10
MARSHFIELD     CLOUDY    21  14  74 S9        29.75F WCI  11
6HR MIN TEMP:  17; 6HR MAX TEMP:  21; 6HR PCP: TRACE;

STEVENS POINT  CLOUDY    20  16  84 SW8       29.80F WCI  11
WAUPACA        LGT SNOW  23  18  80 S8        29.84F WCI  14
WAUTOMA        CLOUDY    21  17  84 S6        29.84F WCI  13
6HR MIN TEMP:  15; 6HR MAX TEMP:  21;

WISC RAPIDS    CLOUDY    22  18  85 S9        29.80F WCI  12
6HR MIN TEMP:  18; 6HR MAX TEMP:  22; 6HR PCP: TRACE;

CAMP DOUGLAS   NOT AVBL
$$

WIZ011>013-019>022-031-037>040-048>050-261300-
NORTHEAST WISCONSIN

CITY           SKY/WX    TMP DP  RH WIND       PRES   REMARKS
ANTIGO         FLURRIES  19  15  88 S13       29.74F WCI   5
SHAWANO        FLURRIES  22  18  82 S3        29.83F
6HR MIN TEMP:  17; 6HR MAX TEMP:  22;

OCONTO         CLOUDY    20  16  83 S6        29.85F WCI  12
STURGEON BAY   CLOUDY    21  17  84 SW10      29.86F WCI  10
6HR MIN TEMP:  18; 6HR MAX TEMP:  21;

GREEN BAY      CLOUDY    22  17  81 S9        29.86F WCI  12
6HR MIN TEMP:  18; 6HR MAX TEMP:  22; 6HR PCP: TRACE;

MANITOWOC      NOT AVBL
APPLETON       FLURRIES  21  14  73 S12       29.84F WCI   9
CLINTONVILLE   CLOUDY    21  16  79 S9        29.84F WCI  11
OSHKOSH        CLOUDY    23  16  74 S16       29.86F WCI  10
6HR MIN TEMP:  14; 6HR MAX TEMP:  23; 6HR PCP: TRACE;

$$

WIZ032>034-041-042-053>061-261300-
SOUTHWEST WISCONSIN

CITY           SKY/WX    TMP DP  RH WIND       PRES   REMARKS
LA CROSSE      PTCLDY    29  19  66 S10       29.80F WCI  20
6HR MIN TEMP:  24; 6HR MAX TEMP:  29;

SPARTA         MOCLDY    24  18  76 S3        29.82F
VIROQUA        CLEAR     22  17  83 S7        29.80F WCI  13
BOSCOBEL       CLOUDY    29  19  66 SW5       29.86F WCI  24
6HR MIN TEMP:  21; 6HR MAX TEMP:  29;

PRAIRIE DU CHI CLOUDY    31  17  57 S8        29.84F WCI  23
PLATTEVILLE    CLOUDY    28  22  76 S14       29.87S WCI  17
$$

WIZ056-057-062-063-064-067-068-261300-
SOUTH CENTRAL WISCONSIN

CITY           SKY/WX    TMP DP  RH WIND       PRES   REMARKS
REEDSBURG      CLOUDY    24  17  76 S10       29.84F WCI  13
BARABOO/DELLS  CLOUDY    24  17  77 S12       29.84F WCI  12
LONE ROCK      NOT AVBL
MINERAL POINT  CLOUDY    28  23  80 S6        29.85F WCI  22
MADISON        CLOUDY    25  18  74 S9        29.88F WCI  15
6HR MIN TEMP:  20; 6HR MAX TEMP:  25;

MIDDLETON      CLOUDY    27  21  77 S7        29.87F WCI  20
WATERTOWN      CLOUDY    23  19  83 S7        29.91F WCI  15
MONROE         CLOUDY    28  19  69 S17       29.89F WCI  16
JANESVILLE     CLOUDY    28  19  69 S9        29.93F WCI  20
$$

WIZ051-052-058>065-066-070>072-261300-
SOUTHEAST WISCONSIN

CITY           SKY/WX    TMP DP  RH WIND       PRES   REMARKS
MILWAUKEE      CLOUDY    25  17  72 S8        29.96S WCI  16
6HR MIN TEMP:  22; 6HR MAX TEMP:  25;

WAUKESHA       MOCLDY    21  16  79 S7        29.94F WCI  13
MILWAUKEE/TIMM CLOUDY    23  16  74 S7        29.95F WCI  15
RACINE         CLOUDY    25  17  72 S8        29.98F WCI  16
6HR MIN TEMP:  21; 6HR MAX TEMP:  25;

KENOSHA        CLOUDY    25  18  74 S12       29.97S WCI  14
6HR MIN TEMP:  20; 6HR MAX TEMP:  25;

FOND DU LAC    CLOUDY    23  15  71 S12       29.88F WCI  12
6HR MIN TEMP:  18; 6HR MAX TEMP:  23;

SHEBOYGAN      CLOUDY    21  14  74 S9        29.91F WCI  11
6HR MIN TEMP:  17; 6HR MAX TEMP:  21;

WEST BEND      CLOUDY    21  19  93 CALM      29.92S
JUNEAU         CLOUDY    22  17  81 S6        29.90F WCI  15
$$

LSZ147-162-261300-
LAKE SUPERIOR

STATION/POSITION TIME  TEMP    WIND        PRES    WAVE
                       AIR SEA DIR/SP/G            HT/PER
                 (UTC) (F)     (DEG/KT/KT) (MB)    (FT/S)
DEVILS ISLAND    1100   26     210/ 14/ 18 1005.3F
PORT WING        1140   25     190/ 10/ 14 1004.7F
SAXON HARBOR     1140   23     200/  8/ 15 1005.1F
$$

LMZ867-665-643>646-261300-
LAKE MICHIGAN

STATION/POSITION TIME  TEMP    WIND        PRES    WAVE
                       AIR SEA DIR/SP/G            HT/PER
                 (UTC) (F)     (DEG/KT/KT) (MB)    (FT/S)
NORTHPORT PIER   1120   23      CALM  /  1 1011.2F
SISTER BAY       1105   23        CALM       N/A
KEWAUNEE LAKESHO 1130   24     200/  8/  9 1011.7F
SHEBOYGAN LAKESH 1100   23     200/ 12/ 13 1014.6F
PORT WASHINGTON  1130   23     220/  5/  8 1015.2S
MILWAUKEE LAKESH 1130   26     190/  9/ 11   N/A
KENOSHA   LAKESH 1100   25     190/  8/ 12 1015.2
$$

TC  - TEMPERATURE IN CELSIUS
VSB - VISIBILITY IN STATUTE MILES
WCI - WIND CHILL INDEX
HX  - HEAT INDEX




USA.gov is the U.S. government's official web portal to all federal, state and local government web resources and services.